Harare Kutsaga, Zimbabwe

9:06 AM CAT on February 13, 2016 (GMT +0200)
Harare International

Weather History for FVHA - August, 2013

Change the Weather History Date:

Saturday, August 31, 2013

  Actual Average Record
Temperature  
Mean Temperature 73 °F -  
Max Temperature 87 °F 80 °F 87 °F (2013)
Min Temperature 59 °F 51 °F 43 °F (2014)
Cooling Degree Days 8    
Growing Degree Days 23 (Base 50)    
Moisture  
Dew Point 42 °F    
Average Humidity 32    
Maximum Humidity 52    
Minimum Humidity 10    
Precipitation  
Precipitation 0.00 in 0.01 in - ()
Sea Level Pressure  
Sea Level Pressure 30.07 in    
Wind  
Wind Speed 8 mph ()    
Max Wind Speed 15 mph    
Max Gust Speed -    
Visibility 5.8 miles    
Events      
Averages and records for this station are not official NWS values.
T = Trace of Precipitation, MM = Missing Value Source: Averaged Metar Reports

Daily Weather History Graph

Daily Weather History Graph

Search for Another Location

Airport or City:

Trip Planner

Search our weather history database for the weather conditions in past years. The results will help you decide how hot, cold, wet, or windy it might be!

Date:

Astronomy

Aug. 31, 2013 Rise Set
Actual Time 6:03 AM CAT 5:48 PM CAT
Civil Twilight 5:41 AM CAT 6:10 PM CAT
Nautical Twilight 5:16 AM CAT 6:35 PM CAT
Astronomical Twilight 4:50 AM CAT 7:00 PM CAT
Moon 2:10 AM CAT (8/31) 1:40 PM CAT (8/31)
Length of Visible Light 12h 28m
Length of Day
11h 44m
Waning Crescent, 23% of the Moon is Illuminated
Aug 31
Waning Crescent
Sep 5
New
Sep 12
First Quarter
Sep 19
Full
Sep 27
Last Quarter

Hourly Weather History & Observations

Time (CAT) Temp. Dew Point Humidity Pressure Visibility Wind Dir Wind Speed Gust Speed Precip Events Conditions
12:00 AM 64.4 °F 42.8 °F 45% 30.09 in - NNE 9.2 mph - N/A   Clear
2:00 AM 62 °F 43 °F 39%  in 9 mi ENE 10.4 mph - -   Haze
2:00 AM 62.6 °F 42.8 °F 48% 30.06 in - ENE 10.4 mph - N/A   Clear
5:00 AM 60.8 °F 42.8 °F 52% 30.06 in - ENE 10.4 mph - N/A   Clear
6:00 AM 60.8 °F 42.8 °F 52% 30.06 in 5.6 mi ENE 10.4 mph - N/A   Clear
7:00 AM 62.6 °F 42.8 °F 48% 30.09 in 4.3 mi ENE 9.2 mph - N/A   Clear
8:00 AM 70 °F 44 °F 28%  in 6 mi ENE 10.4 mph - -   Haze
8:00 AM 69.8 °F 44.6 °F 40% 30.12 in 5.6 mi ENE 10.4 mph - N/A   Clear
9:00 AM 75.2 °F 42.8 °F 31% 30.12 in 5.6 mi ENE 13.8 mph - N/A   Clear
10:00 AM 78.8 °F 42.8 °F 28% 30.12 in 5.6 mi NE 15.0 mph - N/A   Clear
11:00 AM 78.8 °F 44.6 °F 30% 30.12 in 5.6 mi NE 13.8 mph - N/A   Clear
12:00 PM 82.4 °F 42.8 °F 25% 30.06 in 5.6 mi NE 11.5 mph - N/A   Clear
1:00 PM 86.0 °F 41.0 °F 20% 30.06 in 5.6 mi NNE 8.1 mph - N/A   Clear
2:00 PM 85 °F 37 °F 10%  in 6 mi NNW 13.4 mph - -   Haze
2:00 PM 86.0 °F 37.4 °F 18% 30.04 in 5.6 mi NNW 6.9 mph - N/A   Clear
3:00 PM 86.0 °F 39.2 °F 19% 30.01 in 5.6 mi Variable 3.5 mph - N/A   Clear
4:00 PM 86.0 °F 39.2 °F 19% 30.01 in 5.6 mi ENE 3.5 mph - N/A   Clear
5:00 PM 84.2 °F 37.4 °F 19% 30.04 in 5.6 mi WNW 9.2 mph - N/A   Partly Cloudy
6:00 PM 78.8 °F 41.0 °F 26% 30.04 in 5.6 mi NE 5.8 mph - N/A   Partly Cloudy
7:00 PM 75.2 °F 41.0 °F 29% 30.06 in 5.6 mi NE 6.9 mph - N/A   Partly Cloudy
8:00 PM 70 °F 42 °F 26%  in 6 mi WSW 5.8 mph - -   Haze
8:00 PM 69.8 °F 42.8 °F 38% 30.09 in 5.6 mi WSW 5.8 mph - N/A   Partly Cloudy
9:00 PM 68.0 °F 42.8 °F 40% 30.09 in 5.6 mi Variable 1.2 mph - N/A   Partly Cloudy